Flag for China Weather past 2 weeks in Tianjin, Tianjin Municipality, China

Now
27 °F

Clear.


Feels Like: 20 °F
Forecast: 23 / 42 °F
Wind: 6 mph from North

Location: Tianjin / Zhangguizhu

Current Time: Mar 4, 2015 at 3:40:19 AM

Latest Report: Mar 4, 2015 at 3:00 AM


Visibility: 10 mi

Pressure: 30.36 "Hg

Humidity: 33%

Dew point: 1 °F

Location of TianjinLocation

Historic Weather in Tianjin — Graph

°F

Tianjin temperature yesterday

Maximum temperature yesterday: 45 °F (at 12:00 AM)
Minimum temperature yesterday: 28 °F (at 10:30 PM)
Average temperature yesterday: 37 °F

Past Weeks' High & Low Weather Summary

 TemperatureHumidityPressure
High57 °F (Mar 2, 1:30 PM)100% (Feb 20, 10:00 AM)30.57 "Hg (Feb 20, 10:00 AM)
Low23 °F (Feb 19, 7:00 AM)10% (Mar 3, 8:30 AM)29.80 "Hg (Mar 2, 1:00 PM)
Average36 °F52%30.21 "Hg
* Reported Feb 17 2:00 AM — Mar 4 2:30 AM, Tianjin, Weather by CustomWeather, © 2015

Note: Actual official high and low records may vary slightly from our data, if they occured in-between our weather recording intervals... More about our weather records

Advertising

Tianjin weather history for previous 24 hours

 ConditionsComfort  
Time TempWeatherWind HumidityBarometerVisibility
2:30 AM
Wed, Mar 4
28 °FClear.3 mph31%30.36 "Hg10 mi
2:00 AM28 °FClear.1 mph31%30.36 "Hg10 mi
1:30 AM25 °FClear.3 mph39%30.36 "Hg10 mi
1:00 AM25 °FClear.8 mph39%30.36 "Hg10 mi
12:30 AM27 °FClear.6 mph36%30.36 "Hg10 mi
12:00 AM27 °FClear.13 mph36%30.33 "Hg10 mi
11:30 PM
Tue, Mar 3
28 °FClear.3 mph31%30.36 "Hg10 mi
11:00 PM28 °FClear.6 mph31%30.33 "Hg10 mi
10:30 PM28 °FClear.8 mph31%30.33 "Hg10 mi
10:00 PM30 °FClear.8 mph29%30.33 "Hg10 mi
9:30 PM32 °FClear.3 mph27%30.33 "Hg10 mi
9:00 PM34 °FClear.3 mph19%30.30 "Hg10 mi
8:30 PM30 °FClear.8 mph26%30.30 "Hg10 mi
8:00 PM34 °FClear.3 mph19%30.27 "Hg10 mi
7:30 PM32 °FClear.6 mph19%30.27 "Hg10 mi
7:00 PM36 °FClear.8 mph14%30.24 "Hg10 mi
6:30 PM36 °FPassing clouds.6 mph13%30.24 "HgN/A
6:00 PM36 °FPassing clouds.10 mph14%30.24 "HgN/A
5:30 PM37 °FSunny.15 mph12%30.21 "Hg10 mi
5:00 PM37 °FSunny.10 mph12%30.21 "Hg10 mi
4:30 PM37 °FSunny.15 mph12%30.21 "Hg10 mi
4:00 PM37 °FSunny.20 mph11%30.21 "Hg10 mi
3:30 PM39 °FSunny.22 mph10%30.24 "Hg10 mi
3:00 PM39 °FPassing clouds.24 mph10%30.24 "HgN/A
2:30 PM37 °FPassing clouds.20 mph11%30.21 "HgN/A
2:00 PM37 °FSunny.24 mph11%30.24 "Hg10 mi
1:30 PM37 °FSunny.24 mph11%30.24 "Hg10 mi
1:00 PM37 °FSunny.29 mph11%30.24 "Hg10 mi
12:30 PM37 °FSunny.29 mph11%30.24 "Hg10 mi
12:00 PM36 °FSunny.31 mph11%30.24 "Hg10 mi
11:30 AM37 °FSunny.33 mph12%30.24 "Hg10 mi
10:30 AM36 °FSunny.31 mph13%30.24 "Hg10 mi
10:00 AM37 °FSunny.29 mph13%30.24 "Hg10 mi
9:30 AM37 °FSunny.29 mph15%30.21 "Hg10 mi
9:00 AM36 °FSunny.31 mph14%30.18 "Hg10 mi
8:30 AM36 °FSunny.36 mph10%30.18 "Hg10 mi
8:00 AM36 °FSunny.26 mph13%30.18 "Hg10 mi
7:30 AM36 °FSunny.26 mph13%30.15 "Hg10 mi
7:00 AM36 °FSunny.22 mph16%30.12 "Hg10 mi
6:30 AM36 °FClear.20 mph21%30.12 "Hg10 mi
6:00 AM37 °FClear.24 mph18%30.09 "Hg10 mi
5:30 AM39 °FClear.24 mph20%30.07 "Hg10 mi
5:00 AM39 °FClear.20 mph22%30.07 "Hg10 mi
4:30 AM41 °FClear.15 mph26%30.04 "Hg10 mi
4:00 AM43 °FPassing clouds.6 mph31%30.04 "HgN/A
3:30 AM43 °FPassing clouds.8 mph31%30.04 "HgN/A
3:00 AM43 °FPassing clouds.8 mph36%30.04 "HgN/A
Weather by CustomWeather, © 2015

See weather overviewHow to use our weather pages